Stations météo

réclame
Mon MeteoGroup
Timrå/Midlanda, Suède (2366): Température de l'air & dewpoint: 09.11.2018 22:00:00 - 15.11.2018 22:00:00 (CET)Timrå/Midlanda, Suède (2366): Vitesse du vent: 09.11.2018 22:00:00 - 15.11.2018 22:00:00 (CET)Timrå/Midlanda, Suède (2366): Direction du vent: 09.11.2018 22:00:00 - 15.11.2018 22:00:00 (CET)Timrå/Midlanda, Suède (2366): reduced air pressure: 09.11.2018 22:00:00 - 15.11.2018 22:00:00 (CET)Timrå/Midlanda, Suède (2366): visibility: 09.11.2018 22:00:00 - 15.11.2018 22:00:00 (CET)
Date & Time tt [°C] td [°C] ff [km/h] ff [knt] dd ppp [hPa] vv [km]
15.11.2018 22:00:00 0,0 0,0 4 2 NNW 1024,3 0,5
15.11.2018 21:00:00 0,5 0,5 4 2 NW 1023,9 10
15.11.2018 20:00:00 0,2 0,2 5 3 NW 1023,7 10
15.11.2018 19:00:00 0,3 0,3 5 3 NW 1023,1 10
15.11.2018 18:00:00 1,0 1,0 5 3 NW 1022,8 10
15.11.2018 17:00:00 1,2 1,2 5 3 - 1022,7 10
15.11.2018 16:00:00 1,5 1,5 5 3 NW 1022,2 10
15.11.2018 15:00:00 1,3 1,3 8 4 NW 1021,7 8
15.11.2018 14:00:00 1,5 1,5 5 3 NW 1021,2 7
15.11.2018 13:00:00 2,0 2,0 5 3 - 1020,6 1,0
15.11.2018 12:00:00 1,9 1,9 5 3 NW 1020,2 0,3
15.11.2018 11:00:00 1,9 1,9 4 2 NNW 1019,5 8
15.11.2018 10:00:00 0,9 0,9 0 0 N 1019,8 4,5
15.11.2018 09:00:00 0,4 0,4 5 3 NNW 1019,1 5
15.11.2018 08:00:00 0,0 0,0 4 2 NNW 1018,9 6
15.11.2018 07:00:00 -0,2 -0,2 2 1 - 1019,0 7
15.11.2018 06:00:00 -0,6 -0,6 2 1 NNW 1018,8 8
15.11.2018 05:00:00 -1,4 -1,4 0 0 N 1019,1 6
15.11.2018 04:00:00 -1,5 -1,5 4 2 NW 1019,2 0,2
15.11.2018 03:00:00 -1,9 -1,9 4 2 NNW 1019,2 0,2
15.11.2018 02:00:00 -2,1 -2,1 4 2 - 1019,1 0,5
15.11.2018 01:00:00 -2,3 -2,3 4 2 W 1019,3 0,6
15.11.2018 00:00:00 -2,1 -2,1 4 2 N 1019,9 0,6
14.11.2018 23:00:00 -3,3 -3,3 0 0 N 1019,7 0,2
14.11.2018 22:00:00 -2,7 -2,7 0 0 N 1019,4 0,4
14.11.2018 21:00:00 -2,3 -2,3 4 2 NW 1019,6 0,6
14.11.2018 20:00:00 -2,4 -2,4 4 2 W 1019,4 30
14.11.2018 19:00:00 -2,4 -2,4 2 1 NE 1019,7 0,1
14.11.2018 18:00:00 -1,2 -1,2 0 0 N 1020,0 0,1
14.11.2018 17:00:00 -1,5 -1,5 0 0 N 1019,7 10
14.11.2018 16:00:00 -1,3 -1,3 5 3 WSW 1019,4 10
14.11.2018 15:00:00 0,2 0,1 4 2 - 1019,4 10
14.11.2018 14:00:00 0,8 0,5 5 3 WSW 1019,4 10
14.11.2018 13:00:00 1,4 0,5 5 3 WNW 1018,9 10
14.11.2018 12:00:00 1,1 0,4 8 4 WNW 1018,7 10
14.11.2018 11:00:00 0,4 0,0 5 3 W 1018,2 10
14.11.2018 10:00:00 -0,6 -0,8 8 4 W 1017,9 10
14.11.2018 09:00:00 -1,1 -1,2 5 3 - 1016,9 10
14.11.2018 08:00:00 -1,9 -1,9 4 2 - 1016,5 10
14.11.2018 07:00:00 -1,5 -1,5 5 3 WNW 1015,9 10
14.11.2018 06:00:00 -1,3 -1,3 5 3 WNW 1015,4 10
14.11.2018 05:00:00 -1,0 -1,2 5 3 W 1014,8 10
14.11.2018 04:00:00 -0,7 -0,8 9 5 WNW 1014,2 10
14.11.2018 03:00:00 -0,7 -0,7 5 3 WNW 1013,8 10
14.11.2018 02:00:00 -1,7 -1,7 5 3 NNW 1013,4 10
14.11.2018 01:00:00 -2,2 -2,2 5 3 W 1012,9 10
14.11.2018 00:00:00 -1,1 -1,1 5 3 WSW 1012,5 10
13.11.2018 23:00:00 -1,1 -1,1 5 3 WNW 1012,2 10
13.11.2018 22:00:00 -0,9 -0,9 5 3 NW 1011,9 5
13.11.2018 21:00:00 -1,0 -1,0 2 1 - 1011,9 0,4
13.11.2018 20:00:00 -0,6 -0,6 4 2 - 1011,4 0,5
13.11.2018 19:00:00 -1,1 -1,1 4 2 WNW 1011,1 0,1
13.11.2018 18:00:00 -0,6 -0,6 5 3 - 1010,9 0,9
13.11.2018 17:00:00 -1,4 -1,4 5 3 - 1010,4 2,0
13.11.2018 16:00:00 0,4 0,4 0 0 N 1010,2 10
13.11.2018 15:00:00 1,0 1,0 0 0 N 1009,8 10
13.11.2018 14:00:00 2,3 2,3 4 2 NNW 1009,5 10
13.11.2018 13:00:00 2,4 2,4 4 2 - 1009,5 10
13.11.2018 12:00:00 1,4 1,4 4 2 NNW 1009,5 10
13.11.2018 11:00:00 0,1 0,1 5 3 N 1009,6 0,3
13.11.2018 10:00:00 0,0 0,0 4 2 NW 1009,5 0,1
13.11.2018 09:00:00 -0,2 -0,2 4 2 W 1009,2 0,1
13.11.2018 08:00:00 -0,3 -0,3 0 0 N 1009,1 0,3
13.11.2018 07:00:00 0,0 0,0 5 3 NNW 1008,8 0,2
13.11.2018 06:00:00 -0,1 -0,1 4 2 NW 1008,7 0,2
13.11.2018 05:00:00 0,6 0,6 5 3 N 1008,5 -
13.11.2018 04:00:00 1,7 1,7 0 0 N 1008,7 0,2
13.11.2018 03:00:00 2,3 2,3 0 0 N 1008,8 0,1
13.11.2018 02:00:00 5,0 5,0 0 0 N 1008,8 10
13.11.2018 01:00:00 5,4 5,4 8 4 SSE 1009,0 10
13.11.2018 00:00:00 5,8 5,7 11 6 SSE 1009,3 10
12.11.2018 23:00:00 5,9 5,9 11 6 SE 1009,3 10
12.11.2018 22:00:00 6,3 6,3 13 7 SE 1009,3 10
12.11.2018 21:00:00 6,5 6,5 13 7 SE 1009,6 10
12.11.2018 20:00:00 6,5 6,5 8 4 SE 1009,5 10
12.11.2018 19:00:00 6,8 6,8 16 9 SE 1009,9 7
12.11.2018 18:00:00 6,8 6,8 18 10 SSE 1010,1 8
12.11.2018 17:00:00 6,6 6,6 16 9 SE 1010,4 5
12.11.2018 16:00:00 6,3 6,3 18 10 SE 1010,6 2,3
12.11.2018 15:00:00 6,2 6,2 18 10 SE 1010,7 0,5
12.11.2018 14:00:00 6,4 6,4 13 7 SE 1010,6 10
12.11.2018 13:00:00 6,6 6,6 16 9 SE 1010,8 10
12.11.2018 12:00:00 6,2 6,2 18 10 SE 1011,1 0,8
12.11.2018 11:00:00 6,2 6,2 16 9 SE 1011,3 2,0
12.11.2018 10:00:00 6,1 6,1 18 10 SE 1011,6 2,0
12.11.2018 09:00:00 6,1 6,1 21 11 SE 1011,7 10
12.11.2018 08:00:00 6,0 6,1 24 13 SE 1012,0 10
12.11.2018 07:00:00 6,0 6,0 26 14 SE 1012,2 8
12.11.2018 06:00:00 6,0 6,0 26 14 SE 1012,7 3,2
12.11.2018 05:00:00 5,9 5,9 26 14 SE 1013,2 2,4
12.11.2018 04:00:00 6,0 5,9 28 15 SE 1013,6 3,7
12.11.2018 03:00:00 6,0 5,9 22 12 SE 1014,0 6
12.11.2018 02:00:00 5,9 5,9 24 13 SE 1014,6 3,3
12.11.2018 01:00:00 5,9 5,9 24 13 SE 1014,9 2,7
12.11.2018 00:00:00 5,9 5,9 29 16 SE 1015,4 2,9
11.11.2018 23:00:00 6,0 6,0 29 16 SE 1015,5 5
11.11.2018 22:00:00 6,0 6,0 31 17 SE 1015,8 4,2
11.11.2018 21:00:00 6,3 6,3 26 14 SE 1016,1 5
11.11.2018 20:00:00 6,1 6,1 24 13 SE 1016,2 0,8
11.11.2018 19:00:00 6,2 6,2 26 14 SE 1016,4 5
11.11.2018 18:00:00 6,1 6,1 29 16 SE 1016,6 4,4
11.11.2018 17:00:00 6,1 6,1 28 15 SE 1016,7 2,3
11.11.2018 16:00:00 6,1 6,1 29 16 SE 1017,1 3,6
11.11.2018 15:00:00 6,2 6,2 29 16 SE 1017,3 4,1
11.11.2018 14:00:00 6,3 6,3 22 12 ESE 1017,6 3,2
11.11.2018 13:00:00 6,1 6,1 26 14 ESE 1018,0 3,7
11.11.2018 12:00:00 6,0 5,8 21 11 ESE 1018,2 3,5
11.11.2018 11:00:00 5,9 5,6 24 13 SE 1018,5 8
11.11.2018 10:00:00 5,8 5,6 29 16 SE 1018,9 7
11.11.2018 09:00:00 5,9 5,6 26 14 SE 1018,9 7
11.11.2018 08:00:00 5,9 5,7 29 16 SE 1018,9 4,7
11.11.2018 07:00:00 5,9 5,8 29 16 SE 1018,6 6
11.11.2018 06:00:00 5,9 5,6 28 15 ESE 1018,8 4,1
11.11.2018 05:00:00 5,8 5,5 22 12 ESE 1018,9 5
11.11.2018 04:00:00 5,8 5,5 26 14 ESE 1018,9 7
11.11.2018 03:00:00 6,2 5,6 24 13 ESE 1019,0 10
11.11.2018 02:00:00 6,2 5,3 18 10 ESE 1019,0 10
11.11.2018 01:00:00 6,0 5,6 22 12 ESE 1019,0 8
11.11.2018 00:00:00 6,0 5,7 28 15 SE 1019,3 6
10.11.2018 23:00:00 6,1 5,9 24 13 SE 1019,1 6
10.11.2018 22:00:00 6,1 6,0 22 12 ESE 1018,9 10
10.11.2018 21:00:00 5,9 5,8 18 10 ESE 1018,8 2,3
10.11.2018 20:00:00 5,8 5,7 18 10 ESE 1018,8 1,9
10.11.2018 19:00:00 5,6 5,5 18 10 ESE 1018,8 4,0
10.11.2018 18:00:00 5,6 5,6 15 8 ESE 1018,6 2,0
10.11.2018 17:00:00 5,6 5,4 15 8 ESE 1018,9 9
10.11.2018 16:00:00 5,6 5,6 11 6 ESE 1019,0 2,3
10.11.2018 15:00:00 5,7 5,7 18 10 SE 1018,8 2,0
10.11.2018 14:00:00 6,0 6,0 15 8 SE 1018,8 2,6
10.11.2018 13:00:00 6,1 6,1 8 4 SE 1018,9 3,7
10.11.2018 12:00:00 6,1 6,1 8 4 E 1018,8 2,3
10.11.2018 11:00:00 6,1 6,1 8 4 ESE 1018,9 4,6
10.11.2018 10:00:00 6,0 6,0 11 6 ESE 1019,1 10
10.11.2018 09:00:00 5,8 5,8 5 3 ESE 1019,0 3,0
10.11.2018 08:00:00 5,4 5,4 5 3 E 1019,0 4,6
10.11.2018 07:00:00 5,2 5,2 5 3 ESE 1018,8 10
10.11.2018 06:00:00 5,1 5,1 2 1 E 1018,6 6
10.11.2018 05:00:00 4,8 4,8 4 2 SE 1019,0 0,7
10.11.2018 04:00:00 4,9 4,9 4 2 ENE 1018,9 3,7
10.11.2018 03:00:00 4,6 4,6 4 2 ENE 1019,1 4,7
10.11.2018 02:00:00 4,6 4,6 0 0 N 1019,4 4,3
10.11.2018 01:00:00 4,6 4,6 4 2 SSE 1019,6 2,4
10.11.2018 00:00:00 4,5 4,5 0 0 N 1019,7 1,0
09.11.2018 23:00:00 4,6 4,6 0 0 N 1019,8 1,4
09.11.2018 22:00:00 4,7 4,7 5 3 NW 1019,9 2,5

tt = Température de l'air
td = dewpoint
ff = Vitesse du vent
dd = Direction du vent
ppp = reduced air pressure
vv = visibility

stations d'obs. à proximité